www.pogodaiklimat.ru

Погода и климат >> Архив погоды >> Индонезия >> Лхоксёмаве


ПОГОДА в Лхоксёмаве

  • Прогноз погоды в Лхоксёмаве
  • Монитор погоды в Лхоксёмаве

АРХИВ ПОГОДЫ в Лхоксёмаве

Время (UTC), дата Ветер
(напр.,м/с)
 
Видим.   Явления Облачность Т
(С)
Тd
(С)
f
(%)
Тe
(С)
Тes
(С)
Комфортность P
(гПа)
Po
(гПа)
Тmin
(С)
Tmax
(С)
R
(мм)
R24
(мм)
S
(см)
09 12.07 СВ 5 7000 м 8/3 480 м
[Cb cap As trans Ci fib]
+31.6 +24.6 66 +44 +46 опасность
перегрева
1008.7 1005.4
12 12.07 ЮВ 2 5000 м гроза, ливневой дождь 10/6 450 м
[Cb cap As op]
+25.5 +20.9 76 +32 +32 очень
душно
1010.1 1008.7 +33.2 0.0
15 12.07 ЮЗ 2 6000 м зарница {гроза, дождь} 6/3 450 м
[Cb cap As op Ci fib]
+24.7 +22.4 87 +32 +32 очень
душно
1012.0 1008.6
18 12.07 ЮЗ 3 6000 м 5/1 450 м
[Cu med, cong As op Ci fib]
+24.0 +20.7 82 +30 +30 очень
душно
1011.7 1008.3
21 12.07 ЮЗ 2 6000 м 9/3 480 м
[Cu med, cong As op Ci fib]
+23.8 +22.9 95 +32 +32 очень
душно
1010.1 1006.3
00 13.07 ЮЗ 2 6000 м 6/3 480 м
[Cu med, cong As op Ci fib]
+23.9 +21.3 85 +30 +31 очень
душно
1011.4 1008.1 +23.4 0.0
03 13.07 З 2 6000 м 6/1 450 м
[Cb cap As trans Ci fib]
+29.8 +24.6 74 +42 +51 опасность
перегрева
1012.4 1009.0
06 13.07 С 3 6000 м гроза без осадков 8/5 450 м
[Cb calv As trans Ci fib]
+32.4 +25.9 69 +48 +54 опасность
перегрева
1011.0 1007.5
09 13.07 С 3 8000 м {гроза} 8/4 480 м
[Cu med, cong As op Ci fib]
+31.8 +25.4 69 +46 +49 опасность
перегрева
1008.5 1005.0
12 13.07 СВ 1 6000 м гроза без осадков 9/5 450 м
[Cb cap As op Ci fib]
+29.5 +25.3 78 +43 +43 опасность
перегрева
1009.4 1006.0 +32.8
15 13.07 ЮВ 2 6000 м {гроза} 9/3 540 м
[Sc As op Ci fib]
+25.3 +22.4 84 +33 +33 очень
душно
1011.9 1008.6
18 13.07 ЮВ 1 6000 м гроза без осадков 10/3 480 м
[Cb cap As op Ci sp]
+25.3 +23.8 91 +34 +34 очень
душно
1010.6 1007.2
21 13.07 Ю 1 6000 м гроза без осадков 10/4 450 м
[Cb cap As op Ci fib]
+25.5 +24.1 92 +35 +35 очень
душно
1009.7 1006.2
00 14.07 ЮЗ 1 6000 м {гроза} 10/4 450 м
[Cb cap As op]
+25.6 +24.4 93 +36 +36 очень
душно
1011.2 1007.7 +23.9
03 14.07 ЮЗ 3 6000 м 9/5 450 м
[Cb cap As op Ci fib]
+26.8 +24.1 85 +37 +41 очень
душно
1012.4 1009.0 0.0
06 14.07 З 2 6000 м 8/4 480 м
[Cu med, cong As trans Ci fib]
+31.2 +24.3 67 +43 +51 опасность
перегрева
1009.9 1006.5 0.0
09 14.07 С 4 7000 м 8/4 450 м
[Cb cap As op Ci fib]
+30.6 +24.9 72 +44 +46 опасность
перегрева
1007.8 1004.5
12 14.07 З 2 6000 м в посл. час дождь 9/3 480 м
[Cu med, cong As op Ci fib]
+28.2 +25.0 83 +41 +41 опасность
перегрева
1009.0 1005.7 +33.0 0.0
15 14.07 ЮЗ 2 6000 м 6/3 480 м
[Cu med, cong As op Ci fib]
+26.2 +23.7 86 +36 +36 очень
душно
1010.9 1007.4
18 14.07 Ю 1 6000 м 6/3 480 м
[Sc As op Ci fib]
+24.9 +23.5 92 +34 +34 очень
душно
1010.3 1006.8
21 14.07 З 1 6000 м 6/3 480 м
[Sc As op Ci fib]
+24.0 +23.0 94 +32 +32 очень
душно
1008.7 1005.2
00 15.07 Ю 1 6000 м 8/4 480 м
[Sc As op Ci fib]
+23.2 +22.2 94 +32 +32 очень
душно
1009.4 1005.9 +23.0 0.0
03 15.07 СВ 1 9000 м 9/3 500 м
[Sc Ac As Ci fib]
+29.6 +23.9 71 +41 +47 опасность
перегрева
1010.3 1006.8
06 15.07 СВ 3 10 км 9/1 480 м
[Cu med, cong As op Ci fib]
+31.9 +23.5 61 +43 +51 опасность
перегрева
1008.6 1005.2
09 15.07 С 3 9000 м 8/3 480 м
[Cu med, cong As trans Ci fib]
+31.6 +24.1 65 +44 +47 опасность
перегрева
1007.1 1003.6
12 15.07 штиль 0 6000 м 9/3 480 м
[Cu med, cong As trans Ci fib]
+30.0 +24.5 72 +42 +42 опасность
перегрева
1007.6 1004.1 +32.4
15 15.07 штиль 0 6000 м 5/3 480 м
[Cu med, cong Ac trans Ci fib]
+27.0 +24.6 87 +38 +38 очень
душно
1009.8 1006.4
18 15.07 ЮЗ 1 6000 м 8/3 500 м
[Sc As op Ci fib]
+25.6 +24.1 91 +35 +35 очень
душно
1009.2 1005.8
21 15.07 ЮЗ 2 6000 м 8/4 450 м
[Cb cap As op Ci fib]
+24.2 +23.1 94 +32 +32 очень
душно
1007.6 1004.3
00 16.07 штиль 0 6000 м 9/4 450 м
[Cb cap As op Ci fib]
+23.8 +22.5 92 +31 +31 очень
душно
1008.8 1005.3 +23.0
03 16.07 ЮВ 3 7000 м 8/3 480 м
[Cu med, cong As trans Ci fib]
+30.0 +22.3 63 +39 +44 очень
душно
1010.0 1006.6
06 16.07 8000 м н/о +32.0 +23.0 59 +42 +55 опасность
перегрева
1008.8 1005.4
09 16.07 СВ 4 7000 м 9/1 480 м
[Cu med, cong As op Ci sp]
+31.3 +24.1 66 +43 +46 опасность
перегрева
1006.8 1003.3
12 16.07 СВ 2 6000 м зарница 9/4 450 м
[Cb cap As op Ci sp]
+29.4 +23.6 71 +40 +40 очень
душно
1007.9 1004.4 +32.8
15 16.07 В 4 6000 м зарница 9/4 450 м
[Cb cap As op Ci fib]
+28.0 +23.6 77 +38 +38 очень
душно
1010.2 1006.7
18 16.07 ЮВ 3 6000 м зарница 10/3 450 м
[Cb cap As op Ci fib]
+25.7 +23.1 86 +34 +34 очень
душно
1008.9 1005.5
21 16.07 штиль 0 6000 м зарница 10/3 450 м
[Cb cap As op Ci fib]
+25.1 +23.4 90 +34 +34 очень
душно
1007.6 1004.1
00 17.07 штиль 0 6000 м 9/3 500 м
[Sc Ac As Ci fib]
+24.6 +23.5 94 +33 +34 очень
душно
1007.7 1004.2 +23.8
03 17.07 З 2 9000 м 9/4 500 м
[Sc As op Ci fib]
+29.7 +23.1 68 +40 +45 очень
душно
1008.5 1005.1
06 17.07 С 2 10 км 6/3 480 м
[Cu med, cong As op Ci fib]
+32.8 +23.6 59 +44 +55 опасность
перегрева
1006.7 1003.2
09 17.07 С 2 9000 м 6/3 450 м
[Cb cap As trans Ci fib]
+32.3 +23.8 61 +44 +48 опасность
перегрева
1005.2 1001.8
12 17.07 штиль 0 5000 м мгла 10/5 480 м
[Cu Sc As op]
+30.4 +25.0 73 +44 +44 опасность
перегрева
1006.3 1002.8 +33.1
15 17.07 ЮВ 3 5000 м мгла 8/3 450 м
[Cb cap As op Ci fib]
+27.0 +24.2 85 +38 +38 очень
душно
1008.3 1004.9
18 17.07 Ю 1 6000 м 8/4 420 м
[Cb cap As op Ci fib]
+25.5 +23.7 90 +35 +35 очень
душно
1007.9 1004.4
21 17.07 ЮЗ 1 6000 м 8/4 420 м
[Cb cap As op Ci fib]
+25.0 +23.9 94 +34 +34 очень
душно
1005.9 1002.4
00 18.07 ЮЗ 3 6000 м 8/4 450 м
[Sc As op Ci fib]
+24.4 +22.4 89 +32 +32 очень
душно
1006.8 1003.3 +24.3
03 18.07 СЗ 1 8000 м 8/3 480 м
[Cu med, cong As trans Ci fib]
+30.3 +22.0 61 +39 +46 очень
душно
1007.5 1004.0
06 18.07 С 3 8000 м 9/4 480 м
[Cu med, cong As trans Ci fib]
+32.2 +25.1 66 +46 +52 опасность
перегрева
1006.4 1003.0
09 18.07 С 5 8000 м 9/4 480 м
[Cu med, cong As op Ci fib]
+31.4 +24.6 67 +44 +45 опасность
перегрева
1005.2 1031.4
12 18.07 Ю 2 6000 м в посл. час дождь 10/4 450 м
[Cb cap As op]
+26.0 +23.6 87 +35 +35 очень
душно
1006.4 1003.0 +34.0 0.0
15 18.07 ЮВ 4 6000 м зарница 10/4 450 м
[Cb cap As op]
+25.7 +23.4 87 +35 +35 очень
душно
1008.3 1004.9
18 18.07 ЮВ 3 5000 м дым 10/4 450 м
[Cb cap As op]
+25.5 +23.5 89 +35 +35 очень
душно
1008.1 1004.6
21 18.07 ЮЗ 1 6000 м 10/4 500 м
[Sc As op]
+25.5 +23.8 90 +35 +35 очень
душно
1006.3 1002.9
00 19.07 ЮЗ 2 7000 м 10/5 500 м
[Sc Ac As]
+24.8 +23.2 91 +33 +33 очень
душно
1007.3 1003.8 +24.2 0.0
03 19.07 З 2 8000 м 10/3 540 м
[Sc As op Ci sp]
+28.5 +23.8 76 +39 +44 очень
душно
1008.6 1005.1

 

Местоположение метеостанции Лхоксёмаве (Индонезия): широта 5.23 долгота 97.20 высота над уровнем моря 87 м.

В архиве по умолчанию представлена погода в Лхоксёмаве за последнюю неделю. Архивные данные за месяц целиком и за предыдущие месяцы, начиная с января 2011 года, Вы можете получить, выбрав интересующий диапазон дат из раскрывающегося списка и нажав кнопку "Ввод!".


*Определитесь, кто Вы:
робот инопланетянин человек

Внимание! Время в таблицах - всемирное. Для получения местного времени необходимо прибавить поправку, которая равна 7 ч.

Смотрите также архив погоды в соседних городах и на ближайших метеорологических станциях:

Погода в Меулабохе (Индонезия) (162 км)
Погода в Банда-Ачехе (Индонезия) (200 км)
Погода в Сабанге (Индонезия) (220 км)
Погода в Белаване (Индонезия) (230 км)
Погода в Медан Полония (Индонезия) (247 км)
Погода в Лангкави (Малайзия) (306 км)
Погода на Пхукете (Таиланд) (323 км)
Погода на Ко Ланта (Таиланд) (328 км)
Погода в Пенанге (Малайзия) (339 км)
Погода в Пхукет аэропорту (Таиланд) (345 км)

Пояснения к столбцам:

Ветер - указаны скорость ветра в м/с - средняя за 10 мин, порывы в срок и между сроками (в фигурных скобках) и направление, откуда дует ветер: С - северный, СВ - северо-восточный, В - восточный, ЮВ - юго-восточный, Ю - южный, ЮЗ - юго-западный, З - западный, СЗ - северо-западный.
Видимость - горизонтальная дальность видимости в метрах или километрах. При видимости от 1 до 10 км при отсутствии осадков обычно наблюдается дымка, при ухудшении видимости до 1 км и менее - туман. В сухую погоду видимость может ухудшаться дымом, пылью или мглою.
Явления - указаны атмосферные явления, наблюдавшиеся в срок или в последний час перед сроком; фигурными скобками обозначены явления, наблюдавшиеся между сроками (за 1-3 часа до срока); квадратными скобками обозначены град или гололедные отложения с указанием их диаметра в мм.
Облачность - указаны через наклонную черту общая и нижняя облачность в баллах и высота нижней границы облаков в метрах; квадратными скобками обозначены формы облаков: Ci - перистые, Cs - перисто-слоистые, Cc - перисто-кучевые, Ac - высококучевые, As - высокослоистые, Sc - слоисто-кучевые, Ns - слоисто-дождевые, Cu - кучевые, Cb - кучево-дождевые. Подробнее классификацию облаков см. в Атласе облаков (PDF).
T - Температура воздуха - температура, измеренная на высоте 2 м над землей.
Td - Температура точки росы - температура, при понижении до которой содержащийся в воздухе водяной пар достигнет насыщения.
f - Относительная влажность воздуха - влажноcть воздуха, измеренная на высоте 2 м над землей.
Te - Эффективная температура - температура, которую ощущает одетый по сезону человек в тени. Характеристика душности погоды. При расчете учитывается влияние влажности воздуха и скорости ветра на теплоощущения человека.
Tes - Эффективная температура на солнце - температура, которую ощущает человек, с поправкой на солнечный нагрев. Характеристика знойности погоды. Зависит от высоты солнца над горизонтом, облачности и скорости ветра. Ночью, в пасмурную погоду, а также при ветре 12 м/с и более поправка равна нулю.
P - Атмосферное давление - приведенное к уровню моря атмосферное давление.
Po - Атмосферное давление - измеренное на уровне метеостанции атмосферное давление.
Tmin - Минимальная температура - минимум температуры воздуха на высоте 2 м над землей.
Tmax - Максимальная температура - максимум температуры воздуха на высоте 2 м над землей.
R - Количество осадков - Количество выпавших осадков за период времени, мм. При наведении курсора мыши на число - период времени, за который выпало указанное количество осадков.
R24 - Количество осадков - Количество выпавших осадков за 24 часа, мм.
S - Снежный покров - Высота снежного покрова, см. При наведении курсора мыши на число - состояние снежного покрова и степень покрытия местности в баллах.